This demonstration page uses our WeatherBlox Daily Observations layout. Learn more.

Left ArrowRight Arrow

41.55636, -103.73856

Hourly Observations for July 20, 2017

Temp ( °F °C ) Dew Point ( °F °C ) Humidity (%) Winds ( mph kmh ) Pressure ( in mb ) Visibility ( mi km ) Precip ( " mm )
12:53 am 00:53 Mostly Clear 68 20 63 17.2 84 84 N 14 22 29.92 1013 10 16 0.03 0.76
1:53 am 01:53 Clear 70 21.1 62 16.7 76 76 NW 7 11 29.93 1013 10 16 0.00 0.00
2:53 am 02:53 Clear 69 20.6 63 17.2 81 81 S 7 11 29.92 1013 10 16 0.00 0.00
3:53 am 03:53 Clear 69 20.6 63 17.2 81 81 Calm 29.93 1014 10 16 0.00 0.00
4:53 am 04:53 Clear 68 20 64 17.8 87 87 Calm 29.96 1015 10 16 0.00 0.00
5:53 am 05:53 Partly Cloudy 68 20 64 17.8 87 87 NW 3 6 29.97 1015 10 16 0.00 0.00
6:53 am 06:53 Cloudy 69 20.6 64 17.8 84 84 Calm 29.99 1016 10 16 0.00 0.00
7:53 am 07:53 Sunny 72 22.2 64 17.8 76 76 Calm 29.98 1015 10 16 0.00 0.00
8:53 am 08:53 Mostly Cloudy 73 22.8 64 17.8 74 74 NNW 7 11 30.00 1016 10 16 0.00 0.00
9:53 am 09:53 Sunny 75 23.9 63 17.2 66 66 NW 7 11 30.01 1016 10 16 0.00 0.00
10:53 am 10:53 Sunny 80 26.7 62 16.7 54 54 WSW 3 6 30.01 1016 10 16 0.00 0.00
11:53 am 11:53 Sunny 84 28.9 62 16.7 48 48 E 6 9 29.98 1015 10 16 0.00 0.00
12:53 pm 12:53 Sunny 86 30 63 17.2 46 46 E 9 15 29.96 1015 10 16 0.00 0.00
1:53 pm 13:53 Sunny 89 31.7 63 17.2 42 42 E 13 20 29.92 1013 10 16 0.00 0.00
2:53 pm 14:53 Sunny 91 32.8 59 15 34 34 E 13 20 29.91 1013 10 16 0.00 0.00
3:53 pm 15:53 Sunny 92 33.3 58 14.4 32 32 E 12 19 29.87 1011 10 16 0.00 0.00
4:53 pm 16:53 Sunny 92 33.3 57 13.9 31 31 ESE 14 22 29.84 1011 10 16 0.00 0.00
5:53 pm 17:53 Sunny 89 31.7 58 14.4 35 35 ESE 10 17 29.82 1010 10 16 0.00 0.00
6:53 pm 18:53 Sunny 84 28.9 62 16.7 48 48 E 8 13 29.82 1010 10 16 0.00 0.00
7:53 pm 19:53 Sunny 83 28.3 61 16.1 48 48 SE 10 17 29.79 1009 10 16 0.00 0.00
8:53 pm 20:53 Clear 80 26.7 60 15.6 51 51 SE 8 13 29.80 1009 10 16 0.00 0.00
9:53 pm 21:53 Clear 79 26.1 61 16.1 54 54 SE 6 9 29.82 1010 10 16 0.00 0.00
10:53 pm 22:53 Partly Cloudy with Thunderstorms 77 25 63 17.2 62 62 N 3 6 29.84 1010 10 16 0.00 0.00
11:11 pm 23:11 Clear with Nearby Thunderstorms 77 25 64 17.8 64 64 E 7 11 29.74 1007 10 16 0.00 0.00
11:18 pm 23:18 Clear 75 24 64 18 69 69 E 7 11 29.71 1006 10 16 0.00 0.00
11:53 pm 23:53 Clear 74 23.3 65 18.3 74 74 Calm 29.82 1010 10 16 0.00 0.00

Powered by AerisWeather